Hourly Weather Roundup
Issued by NWS Central Illinois

Home | Current Version | Previous Version | Text Only | Print | Product List | Glossary On
Versions: 1 2 3 4 5 6 7 8 9 10 11 12 13 14 15 16 17 18 19 20 21 22 23 24 25 26 27 28 29 30 31 32 33 34 35 36 37 38 39 40 41 42 43 44 45 46 47 48 49 50
000
NZUS43 KILX 261210
HWRILX

AREA WEATHER ROUNDUP
NATIONAL WEATHER SERVICE, LINCOLN IL
700 AM CDT TUE JUL 26 2016


CITY           SKY/WX    TMP DP  RH WIND       PRES   REMARKS
BLOOMINGTON    MOSUNNY   71  67  87 NE3       30.07R
6HR MIN TEMP:  69; 6HR MAX TEMP:  73;

CHAMPAIGN      CLOUDY    74  69  85 NE6       30.05R
6HR MIN TEMP:  73; 6HR MAX TEMP:  75;

DANVILLE       CLOUDY    71  66  84 NE3       30.04R
6HR MIN TEMP:  70; 6HR MAX TEMP:  73;

DECATUR        CLOUDY    73  69  87 NE3       30.05R
6HR MIN TEMP:  72; 6HR MAX TEMP:  75;

EFFINGHAM      TSTM      72  72 100 NE5       30.05R
FLORA          CLOUDY    76  74  92 N12G17    30.02S
6HR MIN TEMP:  74; 6HR MAX TEMP:  77;

GALESBURG      SUNNY     66  65  96 CALM      30.08R
JACKSONVILLE   SUNNY     72  69  91 N3        30.05S
6HR MIN TEMP:  71; 6HR MAX TEMP:  73;

LACON          SUNNY     68  66  92 CALM      30.05S
6HR MIN TEMP:  65; 6HR MAX TEMP:  69;

LAWRENCEVILLE  FOG       75  75 100 S3        30.02S VSB 3/4
6HR MIN TEMP:  75; 6HR MAX TEMP:  77;

LITCHFIELD     NOT AVBL
$$


CITY           SKY/WX    TMP DP  RH WIND       PRES   REMARKS
LINCOLN        SUNNY     71  69  94 CALM      30.05R
6HR MIN TEMP:  68; 6HR MAX TEMP:  72;

MACOMB         SUNNY     65  65  99 CALM      30.09R
MATTOON        LGT RAIN  73  71  93 CALM      30.04R FOG
6HR MIN TEMP:  73; 6HR MAX TEMP:  74; 6HR PCP:  0.36;

MT CARMEL AP   FOG       74  73  96 CALM      30.02R VSB 1/2
6HR MIN TEMP:  73; 6HR MAX TEMP:  75;

OLNEY-NOBLE AP CLOUDY    73  73 100 W3        30.03R FOG
PARIS          CLOUDY    73  69  90 CALM      30.05R THUNDER
6HR MIN TEMP:  72; 6HR MAX TEMP:  74;

PEORIA         SUNNY     71  68  90 CALM      30.06R
6HR MIN TEMP:  68; 6HR MAX TEMP:  73;

PONTIAC        NOT AVBL
RANTOUL        NOT AVBL
ROBINSON       CLOUDY    76  75  98 SE5       30.03R FOG
6HR MIN TEMP:  72; 6HR MAX TEMP:  76;

SPRINGFIELD    MOSUNNY   74  69  85 NE3       30.05R
6HR MIN TEMP:  72; 6HR MAX TEMP:  74;

TAYLORVILLE    CLOUDY    72  71  96 MISG      30.04S
$$

...REGIONAL REPORTS...


CITY           SKY/WX    TMP DP  RH WIND       PRES   REMARKS
CHICAGO O`HARE MOSUNNY   74  66  76 NW5       30.07R
KANKAKEE       PTSUNNY   69  68  97 CALM      30.07R
MOLINE         MOSUNNY   68  65  90 CALM      30.07R
MOUNT STERLING SUNNY     67  66  96 CALM      30.06R
MOUNT VERNON   CLOUDY    73  70  88 CALM      30.02S VSB 1/4
PITTSFIELD     MOSUNNY   70  69  95 N3        30.07R
QUINCY         SUNNY     69  66  90 NE5       30.06R
ROCKFORD       SUNNY     69  66  90 CALM      30.09R
$$


CITY           SKY/WX    TMP DP  RH WIND       PRES   REMARKS
BURLINGTON     SUNNY     68  67  96 N5        30.06S
CEDAR RAPIDS   SUNNY     64  64 100 NW3       30.09R
DES MOINES     PTCLDY    69  66  90 CALM      30.08S
KIRKSVILLE     HVY RAIN  67  64  90 NE5       30.09R
OTTUMWA        CLEAR     67  63  87 N6        30.08R
ST LOUIS       CLOUDY    78  72  81 N6        30.04S HX  80
$$


CITY           SKY/WX    TMP DP  RH WIND       PRES   REMARKS
TERRE HAUTE    CLOUDY    75  69  81 CALM      30.03R
EVANSVILLE     CLOUDY    75  73  93 CALM      30.02R
INDIANAPOLIS   CLOUDY    75  64  68 NE8       30.04F
LAFAYETTE      CLOUDY    71  64  78 E7        30.05S
MADISON        MOSUNNY   68  65  90 CALM      30.08S
MILWAUKEE      MOSUNNY   74  64  71 NW3       30.07R
$$






USA.gov is the U.S. government's official web portal to all federal, state and local government web resources and services.